• en Belgique
  • Liste des pays
  • À 7 jours
  • Température de l'eau
  • Carte satellitaire
  • Carte météo
  • Widgets météo
  • user-avatar
    Se connecter

    Météo par heure à Choumen

    Ce jour, 22 Septembre, Samedi

    Heure Température Précipitation Vent Pression Humidité
    00:00 +18°C° 0 mm 1 m/s 732 mmHg 82%
    01:00 +16°C° 0 mm 1 m/s 732 mmHg 82%
    02:00 +16°C° 0 mm 1 m/s 732 mmHg 85%
    03:00 +15°C° 0 mm 1 m/s 732 mmHg 84%
    04:00 +15°C° 0 mm 1 m/s 732 mmHg 84%
    05:00 +15°C° 0 mm 1 m/s 731 mmHg 83%
    06:00 +16°C° 0 mm 1 m/s 732 mmHg 77%
    07:00 +19°C° 0 mm 1 m/s 732 mmHg 70%
    08:00 +20°C° 0 mm 1 m/s 732 mmHg 63%
    09:00 +23°C° 0 mm 1 m/s 732 mmHg 54%
    10:00 +25°C° 0 mm 1 m/s 732 mmHg 44%
    11:00 +27°C° 0 mm 2 m/s 733 mmHg 35%
    12:00 +28°C° 0 mm 2 m/s 732 mmHg 32%
    13:00 +29°C° 0 mm 2 m/s 732 mmHg 29%
    14:00 +30°C° 0 mm 2 m/s 732 mmHg 28%
    15:00 +29°C° 0 mm 2 m/s 732 mmHg 30%
    16:00 +28°C° 0 mm 2 m/s 732 mmHg 33%
    17:00 +28°C° 0 mm 2 m/s 732 mmHg 36%
    18:00 +25°C° 0 mm 2 m/s 732 mmHg 43%
    19:00 +23°C° 0 mm 2 m/s 732 mmHg 50%
    20:00 +21°C° 0 mm 1 m/s 731 mmHg 58%
    21:00 +20°C° 0 mm 1 m/s 732 mmHg 59%
    22:00 +20°C° 0 mm 1 m/s 732 mmHg 60%
    23:00 +19°C° 0 mm 1 m/s 732 mmHg 61%

    Demain, 23 Septembre, Dimanche

    Heure Température Précipitation Vent Pression Humidité
    00:00 +19°C° 0 mm 1 m/s 732 mmHg 60%
    01:00 +18°C° 0 mm 2 m/s 732 mmHg 58%
    02:00 +18°C° 0 mm 2 m/s 732 mmHg 56%
    03:00 +18°C° 0 mm 2 m/s 732 mmHg 56%
    04:00 +18°C° 0 mm 2 m/s 732 mmHg 55%
    05:00 +17°C° 0 mm 2 m/s 732 mmHg 54%
    06:00 +18°C° 0 mm 2 m/s 733 mmHg 54%
    07:00 +19°C° 0 mm 3 m/s 733 mmHg 54%
    08:00 +20°C° 0 mm 3 m/s 734 mmHg 54%
    09:00 +22°C° 0 mm 3 m/s 734 mmHg 50%
    10:00 +24°C° 0 mm 2 m/s 734 mmHg 47%
    11:00 +26°C° 0 mm 2 m/s 734 mmHg 43%
    12:00 +27°C° 0 mm 2 m/s 734 mmHg 40%
    13:00 +28°C° 0 mm 2 m/s 734 mmHg 38%
    14:00 +29°C° 0 mm 2 m/s 734 mmHg 36%
    15:00 +29°C° 0 mm 2 m/s 734 mmHg 38%
    16:00 +28°C° 0 mm 2 m/s 734 mmHg 40%
    17:00 +27°C° 0 mm 2 m/s 733 mmHg 42%
    18:00 +25°C° 0 mm 2 m/s 733 mmHg 51%
    19:00 +23°C° 0 mm 2 m/s 733 mmHg 60%
    20:00 +20°C° 0 mm 2 m/s 733 mmHg 69%
    21:00 +19°C° 0 mm 2 m/s 733 mmHg 74%
    22:00 +19°C° 0 mm 2 m/s 733 mmHg 79%
    23:00 +18°C° 0 mm 2 m/s 733 mmHg 83%

    Après-demain, 24 Septembre, Lundi

    Heure Température Précipitation Vent Pression Humidité
    00:00 +18°C° 0 mm 2 m/s 733 mmHg 85%
    01:00 +18°C° 0 mm 2 m/s 732 mmHg 88%
    02:00 +18°C° 0 mm 2 m/s 732 mmHg 90%
    03:00 +18°C° 0 mm 3 m/s 731 mmHg 90%
    04:00 +18°C° 0 mm 3 m/s 731 mmHg 89%
    05:00 +18°C° 0 mm 3 m/s 730 mmHg 89%
    06:00 +19°C° 0 mm 3 m/s 730 mmHg 79%
    07:00 +20°C° 0 mm 4 m/s 730 mmHg 70%
    08:00 +22°C° 0 mm 4 m/s 730 mmHg 60%
    09:00 +25°C° 0 mm 5 m/s 729 mmHg 50%
    10:00 +28°C° 0 mm 5 m/s 729 mmHg 40%
    11:00 +32°C° 0 mm 6 m/s 729 mmHg 30%
    12:00 +32°C° 0 mm 6 m/s 728 mmHg 28%
    13:00 +33°C° 0 mm 6 m/s 728 mmHg 26%
    14:00 +34°C° 0 mm 6 m/s 727 mmHg 24%
    15:00 +33°C° 0 mm 6 m/s 727 mmHg 27%
    16:00 +32°C° 0 mm 6 m/s 728 mmHg 31%
    17:00 +30°C° 0 mm 7 m/s 728 mmHg 34%
    18:00 +27°C° 0 mm 7 m/s 729 mmHg 38%
    19:00 +22°C° 0 mm 8 m/s 730 mmHg 43%
    20:00 +18°C° 0 mm 9 m/s 731 mmHg 47%
    21:00 +17°C° 0 mm 8 m/s 731 mmHg 51%
    22:00 +16°C° 0 mm 7 m/s 732 mmHg 54%
    23:00 +15°C° 0 mm 7 m/s 733 mmHg 57%

    25 Septembre, Mardi

    Heure Température Précipitation Vent Pression Humidité
    00:00 +14°C° 0 mm 6 m/s 733 mmHg 57%
    01:00 +14°C° 0 mm 5 m/s 734 mmHg 58%
    02:00 +14°C° 0 mm 5 m/s 734 mmHg 58%
    03:00 +13°C° 0 mm 4 m/s 735 mmHg 56%
    04:00 +13°C° 0 mm 4 m/s 735 mmHg 55%
    05:00 +13°C° 0 mm 4 m/s 735 mmHg 54%
    06:00 +12°C° 0 mm 4 m/s 735 mmHg 53%
    07:00 +12°C° 0 mm 5 m/s 736 mmHg 52%
    08:00 +12°C° 0 mm 5 m/s 736 mmHg 52%
    09:00 +13°C° 0 mm 5 m/s 737 mmHg 48%
    10:00 +14°C° 0 mm 5 m/s 737 mmHg 44%
    11:00 +14°C° 0 mm 5 m/s 737 mmHg 40%
    12:00 +15°C° 0 mm 5 m/s 737 mmHg 37%
    13:00 +15°C° 0 mm 6 m/s 737 mmHg 35%
    14:00 +16°C° 0 mm 6 m/s 737 mmHg 32%
    15:00 +15°C° 0 mm 5 m/s 737 mmHg 34%
    16:00 +15°C° 0 mm 5 m/s 737 mmHg 35%
    17:00 +14°C° 0 mm 5 m/s 738 mmHg 37%
    18:00 +13°C° 0 mm 4 m/s 738 mmHg 40%
    19:00 +11°C° 0 mm 3 m/s 739 mmHg 44%
    20:00 +10°C° 0 mm 3 m/s 740 mmHg 47%
    21:00 +9°C° 0 mm 3 m/s 740 mmHg 49%
    22:00 +9°C° 0 mm 2 m/s 740 mmHg 52%
    23:00 +8°C° 0 mm 2 m/s 741 mmHg 54%

    26 Septembre, Mercredi

    Heure Température Précipitation Vent Pression Humidité
    00:00 +8°C° 0 mm 3 m/s 741 mmHg 54%
    01:00 +7°C° 0 mm 3 m/s 741 mmHg 55%
    02:00 +7°C° 0 mm 3 m/s 741 mmHg 55%
    03:00 +5°C° 0 mm 3 m/s 741 mmHg 56%
    04:00 +5°C° 0 mm 4 m/s 742 mmHg 56%
    05:00 +5°C° 0 mm 4 m/s 742 mmHg 57%
    06:00 +5°C° 0 mm 5 m/s 742 mmHg 55%
    07:00 +5°C° 0 mm 6 m/s 743 mmHg 53%
    08:00 +6°C° 0 mm 7 m/s 743 mmHg 51%
    09:00 +9°C° 0 mm 7 m/s 743 mmHg 46%
    10:00 +10°C° 0 mm 7 m/s 743 mmHg 41%
    11:00 +11°C° 0 mm 7 m/s 744 mmHg 36%
    12:00 +12°C° 0 mm 7 m/s 743 mmHg 34%
    13:00 +12°C° 0 mm 7 m/s 743 mmHg 32%
    14:00 +14°C° 0 mm 7 m/s 743 mmHg 30%
    15:00 +14°C° 0 mm 7 m/s 743 mmHg 30%
    16:00 +12°C° 0 mm 7 m/s 742 mmHg 31%
    17:00 +13°C° 0 mm 6 m/s 742 mmHg 31%
    18:00 +10°C° 0 mm 5 m/s 742 mmHg 35%
    19:00 +10°C° 0 mm 4 m/s 743 mmHg 38%
    20:00 +8°C° 0 mm 3 m/s 743 mmHg 42%
    21:00 +8°C° 0 mm 3 m/s 743 mmHg 44%
    22:00 +7°C° 0 mm 3 m/s 743 mmHg 45%
    23:00 +5°C° 0 mm 3 m/s 743 mmHg 47%

    27 Septembre, Jeudi

    Heure Température Précipitation Vent Pression Humidité
    00:00 +5°C° 0 mm 3 m/s 742 mmHg 47%
    01:00 +5°C° 0 mm 2 m/s 742 mmHg 47%
    02:00 +5°C° 0 mm 2 m/s 742 mmHg 47%
    03:00 +5°C° 0 mm 2 m/s 741 mmHg 48%
    04:00 +4°C° 0 mm 2 m/s 741 mmHg 49%
    05:00 +4°C° 0 mm 2 m/s 741 mmHg 50%
    06:00 +4°C° 0 mm 3 m/s 741 mmHg 47%
    07:00 +7°C° 0 mm 3 m/s 741 mmHg 44%
    08:00 +8°C° 0 mm 3 m/s 741 mmHg 40%
    09:00 +10°C° 0 mm 3 m/s 741 mmHg 37%
    10:00 +12°C° 0 mm 3 m/s 741 mmHg 34%
    11:00 +14°C° 0 mm 4 m/s 740 mmHg 31%
    12:00 +15°C° 0 mm 4 m/s 740 mmHg 30%
    13:00 +17°C° 0 mm 4 m/s 739 mmHg 28%
    14:00 +18°C° 0 mm 4 m/s 739 mmHg 26%
    15:00 +18°C° 0 mm 3 m/s 738 mmHg 28%
    16:00 +17°C° 0 mm 3 m/s 738 mmHg 29%
    17:00 +17°C° 0 mm 3 m/s 737 mmHg 30%
    18:00 +15°C° 0 mm 2 m/s 737 mmHg 36%
    19:00 +13°C° 0 mm 2 m/s 737 mmHg 42%
    20:00 +11°C° 0 mm 1 m/s 737 mmHg 48%
    21:00 +10°C° 0 mm 1 m/s 736 mmHg 53%
    22:00 +10°C° 0 mm 1 m/s 736 mmHg 59%
    23:00 +9°C° 0 mm 1 m/s 736 mmHg 64%
    Voir plus